Home   Weather   Yonkers   Past weeks

Flag for USA Past Weather in Yonkers, New York, USA — Yesterday and Last 2 Weeks

44 °F

Light rain. Low clouds.

Feels Like: 43 °F
Forecast: 39 / 56 °F
Wind: 3 mph from East

Location: Teterboro Airport

Current Time: Oct 27, 2016 at 5:02:13 PM

Latest Report: Oct 27, 2016 at 3:51 PM

Visibility: 8 mi

Pressure: 30.22 "Hg

Humidity: 85%

Dew Point: 40 °F

Location of YonkersLocation

Past Weather in Yonkers — Graph


Yonkers Temperature Yesterday

Maximum temperature yesterday: 51 °F (at 1:51 PM)
Minimum temperature yesterday: 35 °F (at 5:51 AM)
Average temperature yesterday: 44 °F

High & Low Weather Summary for the Past Weeks

High85 °F (Oct 18, 4:51 PM)93% (Oct 13, 6:51 AM)30.45 "Hg (Oct 13, 6:51 AM)
Low35 °F (Oct 26, 5:51 AM)29% (Oct 14, 3:51 PM)29.37 "Hg (Oct 22, 8:51 AM)
Average58 °F63%30.04 "Hg
* Reported Oct 12 3:51 PM — Oct 27 3:51 PM, Yonkers, Weather by CustomWeather, © 2016

Note: Actual official high and low records may vary slightly from our data, if they occured in-between our weather recording intervals... More about our weather records


Yonkers Weather History for the Previous 24 Hours

Scroll right to see more
Time TempWeatherWind HumidityBarometerVisibility
3:51 PM
Thu, Oct 27
44 °FLight rain. Low clouds.3 mph85%30.22 "Hg8 mi
2:51 PM44 °FOvercast.6 mph85%30.24 "Hg7 mi
1:51 PM43 °FLight rain. Overcast.5 mph82%30.28 "Hg4 mi
12:51 PM43 °FLight rain. Overcast.8 mph79%30.32 "Hg10 mi
11:51 AM40 °FLight rain. Overcast.7 mph83%30.37 "Hg8 mi
10:51 AM39 °FLight rain. Overcast.7 mph82%30.41 "Hg4 mi
9:51 AM40 °FLight rain. Cloudy.6 mph73%30.42 "Hg8 mi
8:51 AM41 °FSleet. Overcast.5 mph62%30.45 "Hg9 mi
7:51 AM42 °FSleet. Mostly cloudy.7 mph53%30.43 "Hg10 mi
6:51 AM42 °FOvercast.7 mph49%30.43 "Hg10 mi
5:51 AM42 °FOvercast.6 mph45%30.44 "Hg10 mi
4:51 AM42 °FOvercast.5 mph45%30.42 "Hg10 mi
3:51 AM42 °FOvercast.5 mph45%30.42 "Hg10 mi
2:51 AM43 °FOvercast.5 mph43%30.45 "Hg10 mi
1:51 AM43 °FOvercast.3 mph43%30.45 "Hg10 mi
12:51 AM43 °FOvercast.5 mph43%30.45 "Hg10 mi
11:51 PM
Wed, Oct 26
43 °FPassing clouds.3 mph42%30.45 "Hg10 mi
10:51 PM43 °FClear.6 mph43%30.45 "Hg10 mi
9:51 PM43 °FClear.6 mph45%30.45 "Hg10 mi
8:51 PM45 °FClear.7 mph42%30.43 "Hg10 mi
7:51 PM44 °FClear.6 mph43%30.42 "Hg10 mi
6:51 PM46 °FClear.6 mph38%30.40 "Hg10 mi
5:51 PM47 °FSunny.7 mph34%30.38 "Hg10 mi
Weather by CustomWeather, © 2016

See weather overviewHow to use our weather pages